カタログに戻る

DELTA 1 DEB

LostPO
NORAD 42658·DEBRIS·🇺🇸 United States

打ち上げ Jun 12, 1975 から Vandenberg Space Force Base

Loading…

次のパス (今後24時間)

TLE

古いSource: Space-Track

元期: Feb 13, 2019, 16:09 UTC

1 42658U 75052MT  19044.67300950  .00000404  00000-0  17579-2 0  9991
2 42658  99.7969 209.3313 0432984 303.0360  52.9828 12.60810900678824

AllMySatでDELTA 1 DEBをリアルタイム追跡

Download on the App Store